Location: Plainartige
(45.6866°N, 1.7993°E)
Time: 15:21:29
(UTC+00:00)

Tiros 1 - Pass Details

Date: 28 May 2022
Orbit: 629 x 663 km, 48.4° (Epoch: 05 July)

Event Time Altitude Azimuth Distance (km) Brightness Sun altitude
Exits shadow 00:06:31 40° 110° (ESE) 930 7.8 -22.8°
Drops below altitude 10° 00:09:57 10° 75° (ENE) 2,020 9.9 -22.7°
Sets 00:12:20 0° 70° (ENE) 2,936 10.9 -22.7°
